All Companies

List of Companies

Displaying Results 222,801 to 222,900 of 223,620
Company Name Location Total Records Records Last 90 Days Records Last 30 Days Most Recent Record
SHENZHEN ZBAO LOGISTICS COMPANYShenzhen, China11,2691,1122712026-08-28
OCEAN EXPRESS INTERNATIONAL LOGISTICSYiwu Shi, China3,4691,1123802026-08-27
SILVER BIRCH GP, LLCPhiladelphia, Pennsylvania9,7791,1134232026-08-28
HOYER GLOBAL TRANSPORT B.V.Rotterdam, Netherlands39,6151,1144432026-08-28
TRANSMODAL CORPORATIONRamsey, New Jersey49,9351,1153742026-08-28
HULK INTERNATIONAL LIMITEDRomeoville, Illinois5,2511,1173492026-08-28
GREENHAM USA INC.Boulder, Colorado8,8161,1173252026-08-25
CONTAINERPORT GROUP, INC.Cleveland, Ohio6,9251,1173942026-08-28
AMAZON.COMOklahoma City, Oklahoma17,3311,1173042026-08-28
ADVANTAGE GROUP INTL INCGreat Neck, New York9,0971,1183372026-08-28
ASCEND EXPRESS INC.La Mirada, California14,3051,1193232026-08-28
DONGGUAN FENGYUNDA TECHNOLOGYDongguan, China1,5641,1193902026-08-28
CU TRANSPORT, INC.City of Industry, California30,2251,1203472026-08-28
SEA TRADE INTERNATIONAL TRANSPORTATShanghai, China46,0601,1203612026-08-28
GEPAX GROUP LLCYork, New York10,7831,1213132026-08-28
CONSTELLATION LOGISTICSRutherford, New Jersey7,7711,1224172026-08-28
ZEHONG GLOBAL CANADA INC.New York, New York27,7531,1224062026-08-28
BANANERA NACIONAL S.A.Guatemala, Guatemala57,8131,1223272026-08-27
DIRECT LINK USA LLCAllentown, Pennsylvania27,0961,1233502026-08-28
PRIORITY CUSTOMS BROKERMiami, Florida41,3931,1243892026-08-28
ROYAL CARIBBEAN CELEBRITYWeston, Florida24,7491,1243932026-08-28
YLA (AMERICAS) INC.Secaucus, New Jersey51,3911,1254792026-08-28
JBS USA LLCGreeley, Colorado36,5991,1263482026-08-27
ATC TIRE INCMoorestown, New Jersey9,7531,1283952026-08-28
INTEGRITY LOGISTICS CORPDiamond Bar, California2,8391,1303792026-08-27
SUBOT INCOntario, California2,2161,1303432026-08-28
GALLAGHER TRANSPORT INTERNATIONALDenver, Colorado22,3831,1324422026-08-28
BNX SHIPPING INC.Mississauga, Canada56,8041,1343992026-08-28
EXPRESS LINE CORPORATIONInglewood, California38,1481,1353962026-08-28
TRANS OVERSEAS CORPORATIONRomulus, Michigan43,0251,1354302026-08-28
ALLIANCE GLOBAL LOGISTICS, INCTorrance, California19,8641,1363682026-08-28
BTX GLOBAL LOGISTICSSalt Lake City, Utah21,0111,1404272026-08-28
UNDER ARMOUR, INCBaltimore, Maryland42,5401,1403622026-08-28
MINERVA MEATS USA INCRosemont, Illinois19,1211,1425252026-08-28
SEAFRIGO FRANCE NORTH AMERICALe Havre, France16,1061,1433972026-08-28
EGETRANS USA, INC.Schaumburg, Illinois45,6601,1434322026-08-28
GOYA FOODS INCJersey City, New Jersey55,0551,1463912026-08-28
K-APEX LOGISTICS (XIAMEN) COMPANY LIMITEDXiamen, China47,4331,1463702026-08-28
ALFA LAVAL INCRichmond, Virginia29,9351,1503802026-08-28
EXPEDITORS-LOUISVILLELouisville, Kentucky53,4861,1524192026-08-28
MOL LOGISTICS (USA) INC.Atlanta, Georgia31,3661,1524572026-08-28
LG CHEM, LTD.Seoul, South Korea42,1721,1534152026-08-28
COPPER HILL, INC.Panama City, Florida22,3711,1554292026-08-28
OEC LOGISTICS CO.,LTDNingbo, China17,2611,1553082026-08-28
DSV AIR & SEA NINGBONingbo, China4,9331,1562592026-08-28
SHANGHAI OLIVE SUPPLY CHAIN TECHNOLOGY CO., LTD.Pudong, China14,6621,1573372026-08-28
ONTMoreno Valley, California3,2171,1584822026-08-27
BANANERA TEPEYAC, S.AGuatemala City, Guatemala23,8651,1593222026-08-27
CUSTOMS AND TRADE SERVICES INCSt. Augustine, Florida162,6631,1612692026-08-28
US PACIFIC TRANSPORT INC.New York, New York84,5281,1624052026-08-28
EXPO FREIGHT PRIVATE LIMITEDAhmedabad, India40,4221,1633912026-08-28
EVONIK CORPORATIONPiscataway, New Jersey29,0571,1644412026-08-28
INTERGLOBO SRLGenova, Italy22,2811,1643742026-08-28
PIONEER GLOBAL LOGISTICS,INC.Ontario, California39,4731,1664052026-08-28
SAMSUNG ELECTRONICS VIETNAM CO LTDDong Yen, Vietnam6,0131,1693912026-08-26
SCANWELL LOGISTICS (LAX) INC.Gardena, California36,6191,1703762026-08-28
INTERPORT GLOBAL LOGISTICS USA INCEast Brunswick, New Jersey43,3521,1703962026-08-28
WWL CHINA LTDShanghai, China16,3881,1703822026-08-28
AMERICAN HONDA MOTOR CO., INC.Torrance, California43,8001,1746162026-08-28
PT FOOD PACKAGING JAYAJawa Barat, Indonesia3,7041,1763802026-08-28
TAIWAN EXPRESS (USA), INC.Carson, California22,1301,1763722026-08-28
LONGSAIL USA CORPORATIONWalnut, California32,7431,1763862026-08-28
EMSER TILE LLCLos Angeles, California55,0321,1774622026-08-28
DB GROUP AMERICA LTDDayton, New Jersey29,6361,1793642026-08-28
KLN FREIGHTPhnom Penh, Cambodia2,8121,1804002026-08-28
DEKSU E-COMMERCE LOGISTICS(GUANGZHO U)CO.,LTDGuangzhou, China8,0831,1815022026-08-28
GLOBAL OCEAN AGENCY LINES, L.L.C.Orlando, Florida68,0071,1814072026-08-28
ZESPRI INTERNATIONAL LIMITEDBay of Plenty Region, New Zealand14,3641,1823462026-08-26
LOREAL USA PRODUCTS INCBerkeley Heights, New Jersey24,0261,1835482026-08-28
DEWELL VIET NAM COMPANY LIMITEDHo Chi Minh city, Vietnam31,4361,1853892026-08-28
CN LINK FREIGHT SERVICES INC.Monterey Park, California17,3801,1853392026-08-28
MOREPRO COMPANYOntario, California15,9901,1863262026-08-28
KLN VIETNAM3,2651,1884812026-08-28
ESTEE LAUDER INTL INCMelville, New York28,1661,1894752026-08-28
GUANGDONG ZEALWELL HOLDINGS LTD.Huizhou, China2,5091,1895812026-08-28
CHINAARTS INTERTRANS (SHANGHAI) CO.,LTD.Shanghai, China29,0871,1913502026-08-28
MATRIX SUPPLY CHAIN MANAGEMENTShanghai, China24,2451,1924102026-08-28
DLG INTERNATIONAL INCCanton, Michigan8,1741,1924052026-08-28
HEINEKEN USA INCORPORATEDWhite Plains, New York63,5781,1954382026-08-28
CNG INC.Purchase, New York3,4111,1974882026-08-28
LG ELECTRONICS CANADA INC.North York, Canada29,7311,1974292026-08-28
KESTREL LINER AGENCIES LLPMedley, Florida35,7171,2034452026-08-28
DELTA ELECTRONICS (AMERICAS) LTD.Fremont, California20,1881,2033752026-08-28
ONPOINT TRADE SERVICES, LLCArcadia, California7,9501,2033452026-08-28
K-APEX LOGISTICS (SHENZHEN) CO., LTD.Shenzhen, China105,2541,2042872026-08-28
HANSOL GLOBAL LOGISTICS USA, INC.La Mirada, California19,7021,2064482026-08-28
GREAT WORLDWIDE LOGISTICS CO.LTD.Mississauga, Canada23,8101,2083762026-08-28
GISELA SUPPLIES LLCPhoenix, Arizona1,2181,2103912026-08-28
SHENZHEN RUISITUO TRADINGShenzhen, China1,5741,2103862026-08-28
W.E.S.T. FORWARDING SERVICES INCMiddleburg Heights, Ohio69,7461,2113992026-08-28
QVC, INC.West Chester, Pennsylvania41,6511,2134362026-08-28
GENERAL NOLI SPEDIZIONI INTERNAZIONModena, Italy44,6451,2134042026-08-28
GREENHAM AUSTRALIA PTY LTDMelbourne, Australia9,2721,2163632026-08-25
SUN PACIFIC MARKETINGPasadena, California8,3281,2175922026-08-28
PSA BDPCrum Lynne, Pennsylvania11,7661,2174382026-08-28
POLYGROUP EVERGREEN LIMITEDChina2,4141,2185912026-08-28
HAYCO DOMINICAN REPUBLICLa Caleta, Dominican Republic15,0251,2193472026-08-26
NTG SUPPLY CHAIN SOLUTIONS, LLCIndianapolis, Indiana6,1251,2244482026-08-28
HENGFENG INTERNATIONAL FORWARDING CTemple City, California30,2981,2263652026-08-28
BUSA DISTRIBUTION CENTERJacksonville, Florida28,7571,2283402026-08-28